Location: Pinon Hills
(34.4429°N, 117.6403°W)
Time: 20:35:20
(UTC-08:00)

Daily predictions for brighter satellites

Satellite Brightness Start Highest point End
(mag) Time Altitude Azimuth Time Altitude Azimuth Time Altitude Azimuth
Cosmos 2322 Rocket 2.2 17:57:33 10° NNW 18:03:10 75° ENE 18:08:46 10° SSE
Meteor 1-20 Rocket 4.4 17:58:03 10° S 18:03:53 87° E 18:09:45 10° N
TSX-5 3.2 18:05:21 10° SSW 18:08:35 88° ESE 18:11:45 10° NNE
BREEZE-M DEB (TANK) 4.1 18:12:53 10° N 18:14:31 14° NE 18:16:56 10° ENE
Gbstr 26 Del rocket 2.6 18:10:57 10° SW 18:14:56 87° SE 18:18:40 10° NE
GPS 2-04 Rocket1 3.4 18:12:59 10° SW 18:17:04 46° SSE 18:21:01 11° E
Cosmos 1238 Rocket 3.3 18:15:54 10° NNE 18:18:19 22° E 18:20:46 10° SE
NOAA 12 4.2 18:13:21 10° SSE 18:18:33 60° ENE 18:23:47 10° N
Cosmos 2322 4.4 18:14:21 10° N 18:19:29 33° ENE 18:24:33 10° SE
H-2A R/B 4.2 18:22:13 10° ESE 18:24:36 16° ENE 18:26:59 10° NNE
Cosmos 1536 3.7 18:21:30 10° SSE 18:24:54 27° E 18:28:19 10° NNE
Cosmos 1633 2.5 18:24:11 10° S 18:27:49 66° E 18:31:29 10° NNE
GEOS 3 Rocket 3.8 18:23:57 10° NE 18:29:07 57° ESE 18:34:19 10° SSW
Meteor 1-13 Rocket 4.4 18:24:09 10° N 18:29:34 51° E 18:35:04 10° SSE
METEOR-M 4.1 18:24:24 10° SSE 18:29:43 76° ENE 18:35:04 10° N
Cosmos 1812 4.1 18:29:01 10° NNW 18:32:41 42° W 18:36:20 10° SSW
Okean 1 3.5 18:29:01 10° N 18:33:04 76° W 18:37:07 10° S
BREEZE-M DEB (TANK) 3.3 18:26:05 10° NW 18:33:33 59° NNE 18:35:46 16° ESE
Cosmos 1023 Rocket 4.4 18:29:18 10° SSW 18:34:22 83° ESE 18:39:31 10° NNE
COSMOS 2428 3.8 18:30:19 10° N 18:34:46 23° ENE 18:37:44 16° E
Meteor 2-4 Rocket 4.2 18:33:09 10° N 18:38:11 36° ENE 18:43:06 10° SE
Cosmos 1536 Rocket 3.7 18:34:15 10° N 18:38:44 83° W 18:43:13 10° S
Cosmos 1741 Rocket 4.1 18:36:51 10° S 18:41:56 55° ESE 18:47:02 10° NNE
Cosmos 2219 3.2 18:46:09 10° S 18:51:48 61° ESE 18:57:27 10° NNE
Cosmos 2360 Rocket 2.1 18:48:17 10° NNW 18:53:57 75° ENE 18:59:36 10° SSE
Cosmos 2219 Rocket 3.6 18:51:32 10° NNE 18:55:22 19° ENE 18:55:22 19° ENE
Cosmos 2227 Rocket 4.0 18:54:33 10° SE 18:55:24 13° SE 18:55:24 13° SE
Cosmos 1570 Rocket 4.2 18:56:12 10° N 19:01:15 48° ENE 19:04:49 19° SE
Abrixas rocket 2.2 18:57:58 10° SW 19:01:18 79° NW 19:02:26 39° NE
Meteor 1-11 Rocket 4.0 18:56:17 10° SSW 19:02:02 73° W 19:07:56 10° N
Resurs 01 Rocket 1.5 18:58:04 10° SSE 19:02:24 63° ENE 19:06:46 10° N
Cosmos 1300 Rocket 4.4 18:58:59 10° SSW 19:03:16 52° W 19:07:36 10° N
Cosmos 1140 Rocket 4.4 19:00:04 10° SW 19:05:01 49° WNW 19:10:00 10° N
DELTA 2 R/B (1) 3.5 19:04:08 10° WNW 19:09:46 89° NNE 19:12:19 34° ESE
ALOS 2.4 19:07:37 10° S 19:12:16 74° WSW 19:16:57 10° NNW
Helios 1A 3.6 19:17:34 38° NE 19:17:34 38° NE 19:20:40 10° N
Spot 2 Rocket 3.4 19:14:50 10° SSE 19:19:53 89° W 19:24:59 10° NNW
Resurs 1-3 3.4 19:15:35 10° SSE 19:19:58 84° ENE 19:24:21 10° N
Cosmos 2327 Rocket 4.4 19:15:13 10° S 19:21:24 83° E 19:27:44 10° N
OTV 4 2.8 19:23:04 10° SW 19:24:05 17° SSW 19:24:05 17° SSW
Cosmos 2208 Rocket 3.9 19:22:58 10° NNW 19:28:26 81° ENE 19:31:09 30° SSE
Cosmos 2333 Rocket 3.4 19:24:46 10° N 19:28:17 26° NE 19:28:17 26° NE
Tiangong 2 3.0 19:28:11 10° W 19:30:32 25° SW 19:30:32 25° SW
Helios 1B rocket 2.3 19:30:51 36° NNE 19:32:30 88° WNW 19:36:39 10° SSW
Envisat 4.5 19:38:53 23° NNE 19:38:53 23° NNE 19:41:00 10° N
Genesis I 3.9 19:35:18 10° NNW 19:38:11 47° NNW 19:38:11 47° NNW
Cosmos 2074 Rocket 4.4 19:34:45 10° SSW 19:40:54 62° W 19:47:08 10° N
USA 229 DEB 3.8 19:33:58 10° NNW 19:40:59 56° NE 19:42:02 51° E
USA 229 3.9 19:34:04 10° NNW 19:41:05 55° NE 19:42:06 51° E
ATLAS 2A CENTAUR R/B 3.7 19:39:54 10° SW 19:43:17 28° S 19:44:26 26° SSE
Hubble Space Telescope 2.7 19:40:07 10° SW 19:42:10 22° SSW 19:42:10 22° SSW
Cosmos 2184 Rocket 4.5 19:37:48 10° SSW 19:44:02 61° W 19:50:15 10° N
GPS 2-04 Rocket1 4.0 19:52:33 10° W 19:55:32 43° W 19:55:32 43° W
Cosmos 1025 Rocket 4.5 19:57:15 10° NNW 20:01:17 37° W 20:02:48 28° SW
Nadezhda 3 Rocket 4.3 20:01:36 10° N 20:06:14 54° N 20:06:14 54° N
Atlas Centaur 2 4.2 20:06:24 10° SSW 20:08:55 18° SSW 20:08:55 18° SSW
Cosmos 2154 Rocket 4.2 20:06:41 10° SSW 20:12:59 70° W 20:19:20 10° N
Cosmos 2285 Rocket 4.3 20:10:42 10° NNW 20:17:03 63° WSW 20:17:45 59° SW
COSMOS 2428 3.6 20:13:50 10° NW 20:19:10 43° WSW 20:19:52 41° SW
Cosmos 2237 Rocket 3.9 20:17:32 10° NNW 20:19:37 23° N 20:19:37 23° N
H-2A R/B 4.1 20:29:23 10° SW 21:08:04 13° E 21:17:01 10° E
H-2A R/B 4.1 20:29:24 10° SW 21:08:05 13° E 21:17:00 10° E
H-2A R/B 4.1 20:29:23 10° SW 21:08:05 13° E 21:17:00 10° E
H-2A R/B 4.1 20:29:24 10° SW 21:08:04 13° E 21:17:01 10° E
H-2A R/B 4.1 20:29:24 10° SW 21:08:05 13° E 21:17:01 10° E
H-2A R/B 4.1 20:29:23 10° SW 21:08:05 13° E 21:17:01 10° E
H-2A R/B 4.1 20:29:24 10° SW 21:08:04 13° E 21:17:00 10° E
Cosmos 2219 Rocket 3.7 20:34:12 10° NNW 20:37:08 31° NW 20:37:08 31° NW
Cosmos 2227 Rocket 4.5 20:36:23 10° SW 20:37:22 15° SW 20:37:22 15° SW
CZ-3 Stage 3 4.4 20:52:17 10° WSW 21:10:20 41° SW 21:10:20 41° SW
